• In Russia
  • List of Countries
  • For 7 days
  • Water Temperature
  • Satellite Maps
  • Weather Map
  • Weather Widgets
  • user-avatar
    Login

    Hourly Weather Kitzbuhel

    Today, 23 May, Tuesday

    Time Temperature Precipitation Wind Pressure Humidity
    00:00 +8°C° 0 mm 2 mps 677 mmHg 89%
    01:00 +8°C° 0 mm 2 mps 677 mmHg 88%
    02:00 +7°C° 0 mm 2 mps 677 mmHg 87%
    03:00 +7°C° 0 mm 2 mps 677 mmHg 86%
    04:00 +7°C° 0 mm 2 mps 677 mmHg 85%
    05:00 +9°C° 0.1 mm 2 mps 677 mmHg 83%
    06:00 +10°C° 0.1 mm 2 mps 678 mmHg 80%
    07:00 +13°C° 0.1 mm 1 mps 679 mmHg 78%
    08:00 +15°C° 0.1 mm 2 mps 679 mmHg 72%
    09:00 +16°C° 0.1 mm 2 mps 679 mmHg 66%
    10:00 +18°C° 0.1 mm 2 mps 680 mmHg 60%
    11:00 +18°C° 0.1 mm 2 mps 680 mmHg 59%
    12:00 +19°C° 0.1 mm 2 mps 680 mmHg 58%
    13:00 +20°C° 0.1 mm 2 mps 679 mmHg 56%
    14:00 +19°C° 0.3 mm 2 mps 679 mmHg 60%
    15:00 +19°C° 0.3 mm 2 mps 679 mmHg 64%
    16:00 +19°C° 0.3 mm 2 mps 679 mmHg 68%
    17:00 +17°C° 0.3 mm 2 mps 679 mmHg 75%
    18:00 +16°C° 0.3 mm 2 mps 679 mmHg 82%
    19:00 +14°C° 0.3 mm 1 mps 679 mmHg 90%
    20:00 +13°C° 0.3 mm 2 mps 679 mmHg 91%
    21:00 +12°C° 0.3 mm 2 mps 679 mmHg 92%
    22:00 +10°C° 0.3 mm 2 mps 679 mmHg 93%
    23:00 +10°C° 0.1 mm 2 mps 679 mmHg 92%

    Tomorrow, 24 May, Wednesday

    Time Temperature Precipitation Wind Pressure Humidity
    00:00 +9°C° 0.1 mm 2 mps 679 mmHg 91%
    01:00 +9°C° 0.1 mm 2 mps 679 mmHg 91%
    02:00 +9°C° 0.2 mm 2 mps 679 mmHg 91%
    03:00 +9°C° 0.2 mm 2 mps 679 mmHg 91%
    04:00 +10°C° 0.2 mm 2 mps 679 mmHg 92%
    05:00 +10°C° 0.3 mm 2 mps 679 mmHg 92%
    06:00 +12°C° 0.3 mm 2 mps 680 mmHg 93%
    07:00 +12°C° 0.3 mm 2 mps 680 mmHg 93%
    08:00 +13°C° 0.3 mm 2 mps 680 mmHg 91%
    09:00 +13°C° 0.3 mm 2 mps 680 mmHg 89%
    10:00 +14°C° 0.3 mm 2 mps 680 mmHg 87%
    11:00 +14°C° 0.1 mm 2 mps 680 mmHg 83%
    12:00 +14°C° 0.1 mm 3 mps 680 mmHg 79%
    13:00 +16°C° 0.1 mm 3 mps 681 mmHg 76%
    14:00 +16°C° 0.1 mm 3 mps 680 mmHg 74%
    15:00 +16°C° 0.1 mm 3 mps 680 mmHg 72%
    16:00 +16°C° 0.1 mm 3 mps 680 mmHg 70%
    17:00 +15°C° 0 mm 2 mps 680 mmHg 76%
    18:00 +14°C° 0 mm 2 mps 680 mmHg 82%
    19:00 +13°C° 0 mm 2 mps 680 mmHg 88%
    20:00 +12°C° 0 mm 2 mps 680 mmHg 91%
    21:00 +10°C° 0 mm 2 mps 680 mmHg 93%
    22:00 +10°C° 0 mm 1 mps 680 mmHg 96%
    23:00 +9°C° 0 mm 2 mps 680 mmHg 96%

    Day after tomorrow, 25 May, Thursday

    Time Temperature Precipitation Wind Pressure Humidity
    00:00 +8°C° 0 mm 2 mps 680 mmHg 96%
    01:00 +8°C° 0 mm 2 mps 679 mmHg 95%
    02:00 +8°C° 0.1 mm 2 mps 679 mmHg 94%
    03:00 +9°C° 0.1 mm 2 mps 679 mmHg 93%
    04:00 +9°C° 0.1 mm 2 mps 678 mmHg 92%
    05:00 +9°C° 1.3 mm 3 mps 678 mmHg 93%
    06:00 +9°C° 1.3 mm 3 mps 678 mmHg 93%
    07:00 +9°C° 1.3 mm 3 mps 678 mmHg 93%
    08:00 +9°C° 2 mm 3 mps 678 mmHg 94%
    09:00 +9°C° 2 mm 3 mps 678 mmHg 94%
    10:00 +9°C° 2 mm 3 mps 679 mmHg 94%
    11:00 +10°C° 0.6 mm 3 mps 679 mmHg 91%
    12:00 +11°C° 0.6 mm 3 mps 679 mmHg 88%
    13:00 +12°C° 0.6 mm 2 mps 679 mmHg 85%
    14:00 +13°C° 0.1 mm 2 mps 679 mmHg 83%
    15:00 +13°C° 0.1 mm 2 mps 679 mmHg 81%
    16:00 +14°C° 0.1 mm 2 mps 679 mmHg 78%
    17:00 +13°C° 0 mm 2 mps 679 mmHg 82%
    18:00 +12°C° 0 mm 2 mps 679 mmHg 86%
    19:00 +12°C° 0 mm 1 mps 679 mmHg 90%
    20:00 +10°C° 0 mm 1 mps 679 mmHg 92%
    21:00 +9°C° 0 mm 1 mps 679 mmHg 94%
    22:00 +8°C° 0 mm 1 mps 679 mmHg 96%
    23:00 +7°C° 0 mm 1 mps 679 mmHg 96%

    26 May, Friday

    Time Temperature Precipitation Wind Pressure Humidity
    00:00 +7°C° 0 mm 1 mps 679 mmHg 97%
    01:00 +7°C° 0 mm 1 mps 678 mmHg 97%
    02:00 +7°C° 0 mm 1 mps 678 mmHg 96%
    03:00 +6°C° 0 mm 1 mps 678 mmHg 96%
    04:00 +6°C° 0 mm 1 mps 678 mmHg 96%
    05:00 +8°C° 0 mm 1 mps 678 mmHg 90%
    06:00 +10°C° 0 mm 1 mps 678 mmHg 85%
    07:00 +12°C° 0 mm 1 mps 679 mmHg 80%
    08:00 +13°C° 0 mm 1 mps 679 mmHg 75%
    09:00 +14°C° 0 mm 1 mps 679 mmHg 69%
    10:00 +16°C° 0 mm 2 mps 679 mmHg 63%
    11:00 +16°C° 0.1 mm 2 mps 679 mmHg 62%
    12:00 +17°C° 0.1 mm 2 mps 679 mmHg 62%
    13:00 +18°C° 0.1 mm 2 mps 679 mmHg 61%
    14:00 +17°C° 0.1 mm 2 mps 679 mmHg 64%
    15:00 +17°C° 0.1 mm 2 mps 679 mmHg 68%
    16:00 +17°C° 0.1 mm 2 mps 678 mmHg 71%
    17:00 +16°C° 0.1 mm 2 mps 678 mmHg 78%
    18:00 +15°C° 0.1 mm 2 mps 678 mmHg 84%
    19:00 +13°C° 0.1 mm 1 mps 678 mmHg 91%
    20:00 +12°C° 0 mm 1 mps 678 mmHg 93%
    21:00 +10°C° 0 mm 1 mps 678 mmHg 95%
    22:00 +9°C° 0 mm 1 mps 678 mmHg 97%
    23:00 +8°C° 0 mm 1 mps 678 mmHg 97%

    27 May, Saturday

    Time Temperature Precipitation Wind Pressure Humidity
    00:00 +8°C° 0 mm 1 mps 678 mmHg 97%
    01:00 +7°C° 0 mm 1 mps 678 mmHg 97%
    02:00 +7°C° 0 mm 1 mps 678 mmHg 96%
    03:00 +6°C° 0 mm 1 mps 678 mmHg 96%
    04:00 +6°C° 0 mm 1 mps 678 mmHg 95%
    05:00 +8°C° 0 mm 1 mps 678 mmHg 89%
    06:00 +10°C° 0 mm 1 mps 679 mmHg 84%
    07:00 +13°C° 0 mm 1 mps 680 mmHg 78%
    08:00 +14°C° 0 mm 1 mps 680 mmHg 71%
    09:00 +16°C° 0 mm 2 mps 680 mmHg 64%
    10:00 +18°C° 0 mm 2 mps 681 mmHg 56%
    11:00 +18°C° 0 mm 2 mps 681 mmHg 56%
    12:00 +19°C° 0 mm 3 mps 681 mmHg 55%
    13:00 +19°C° 0 mm 3 mps 681 mmHg 54%
    14:00 +19°C° 0 mm 3 mps 680 mmHg 57%
    15:00 +19°C° 0 mm 3 mps 680 mmHg 59%
    16:00 +19°C° 0 mm 3 mps 680 mmHg 62%
    17:00 +17°C° 0 mm 2 mps 680 mmHg 70%
    18:00 +16°C° 0 mm 2 mps 680 mmHg 78%
    19:00 +14°C° 0 mm 2 mps 680 mmHg 86%
    20:00 +12°C° 0 mm 2 mps 680 mmHg 88%
    21:00 +10°C° 0 mm 1 mps 680 mmHg 91%
    22:00 +8°C° 0 mm 1 mps 680 mmHg 93%
    23:00 +8°C° 0 mm 1 mps 680 mmHg 93%

    28 May, Sunday

    Time Temperature Precipitation Wind Pressure Humidity
    00:00 +9°C° 0 mm 1 mps 680 mmHg 93%
    01:00 +8°C° 0 mm 2 mps 680 mmHg 92%
    02:00 +8°C° 0 mm 2 mps 680 mmHg 92%
    03:00 +8°C° 0 mm 2 mps 680 mmHg 92%
    04:00 +8°C° 0 mm 2 mps 680 mmHg 92%
    05:00 +11°C° 0 mm 1 mps 681 mmHg 88%
    06:00 +13°C° 0 mm 1 mps 681 mmHg 84%
    07:00 +14°C° 0 mm 1 mps 682 mmHg 80%
    08:00 +18°C° 0 mm 1 mps 682 mmHg 70%
    09:00 +20°C° 0 mm 1 mps 682 mmHg 61%
    10:00 +22°C° 0 mm 1 mps 683 mmHg 52%
    11:00 +22°C° 0 mm 1 mps 683 mmHg 51%
    12:00 +23°C° 0 mm 2 mps 683 mmHg 51%
    13:00 +24°C° 0 mm 2 mps 683 mmHg 50%
    14:00 +23°C° 0 mm 2 mps 682 mmHg 53%
    15:00 +23°C° 0 mm 2 mps 682 mmHg 56%
    16:00 +23°C° 0 mm 2 mps 682 mmHg 59%
    17:00 +20°C° 0.1 mm 2 mps 682 mmHg 68%
    18:00 +20°C° 0.1 mm 1 mps 681 mmHg 77%
    19:00 +18°C° 0.1 mm 1 mps 681 mmHg 86%
    20:00 +15°C° 0 mm 1 mps 681 mmHg 88%
    21:00 +14°C° 0 mm 1 mps 681 mmHg 90%
    22:00 +12°C° 0 mm 1 mps 681 mmHg 92%
    23:00 +12°C° 0 mm 2 mps 681 mmHg 92%
    Show more